Location: Brachbach
(49.1847°N, 9.7240°E)
Time: 07:51:21
(UTC+00:00)

FO-29 - Pass Details

Date: 23 March 2026
Orbit: 801 x 1320 km, 98.5° (Epoch: 17 April)

Event Time Altitude Azimuth Distance (km) Brightness Sun altitude
Rises 18:55:03 0° 18° (NNE) 4,230 12.8 -13.1°
Reaches altitude 10° 18:57:56 10° 26° (NNE) 3,300 12.2 -13.6°
Maximum altitude 19:05:11 41° 94° (E) 1,834 10.5 -14.7°
Drops below altitude 10° 19:12:26 10° 162° (SSE) 3,320 11.9 -15.8°
Sets 19:15:19 0° 170° (S) 4,257 12.5 -16.2°
